#timestamp,LO_Frequency,Hit,StdDev 
1689177615.4,286047001.0,N
1689177635.3,286047000.1,N
1689177655.1,286047000.2,N
1689177656.0,286047000.2,N
1689177675.8,286047000.1,N
1689177695.7,286047000.3,N
1689177715.5,286047001.0,N
1689177735.4,286047002.8,N
1689177755.2,286047000.0,N
1689177775.0,286046999.9,N
1689177775.9,286046999.9,N
1689177795.8,286047000.9,N
1689177815.6,286047000.9,N
1689177835.4,286047001.0,N
1689177855.3,286047001.2,N
1689177875.1,286047000.9,N
1689177895.9,286047000.0,N
1689177915.7,286047000.0,N
1689177935.5,286047000.8,N
1689177955.4,286047001.2,N
1689177975.2,286047000.6,N
1689177995.0,286046999.9,N
1689177995.9,286046999.9,N
1689178015.8,286047000.5,N
1689178035.6,286047000.3,N
1689178055.5,286047000.6,N
1689178075.8,286047000.2,N
1689178095.6,286047000.5,N
1689178115.5,286047000.6,N
1689178135.3,286047000.5,N
1689178155.2,286046999.9,N
1689178175.9,286046999.8,N
1689178195.7,286046999.8,N
1689178215.6,286046999.7,N
1689178235.4,286047000.8,N
1689178255.2,286046999.9,N
1689178275.1,286046999.7,N
1689178276.0,286046999.7,N
1689178295.8,286046999.9,N
1689178315.7,286047000.2,N
1689178335.5,286047000.3,N
1689178355.3,286047002.4,Y
1689178375.2,286047001.1,P
1689178395.0,286047000.4,N
1689178395.9,286047000.4,N
1689178415.7,286046998.1,Y
1689178435.6,286046998.2,P
1689178455.4,286046998.6,N
1689178475.3,286046998.3,N
1689178495.1,286046998.6,N
1689178496.0,286046998.6,N
1689178515.8,286046998.2,N
1689178535.7,286046998.5,N
1689178555.5,286046998.6,N
1689178575.4,286046998.8,N
1689178595.2,286046998.6,N
1689178615.0,286046998.5,N
1689178615.9,286046998.5,N
1689178635.8,286046998.1,Y
1689178655.6,286047000.4,P
1689178675.5,286046999.9,N
1689178695.3,286047002.8,P
1689178715.1,286047000.0,N
1689178735.9,286047000.2,N
1689178755.7,286047002.4,N
1689178775.5,286047000.0,N
1689178795.4,286046999.9,N
1689178815.2,286046999.8,N
1689178835.1,286047000.2,N
1689178836.0,286047000.2,N
1689178855.8,286047002.3,N
1689178875.6,286046999.9,N
1689178895.5,286047000.0,N
1689178915.3,286047000.4,N
1689178935.2,286047002.7,N
1689178955.9,286047002.8,N
1689178975.7,286047001.9,N
1689178995.6,286047002.1,N
1689179015.4,286047002.0,N
1689179035.2,286047001.5,N
1689179055.1,286047001.3,N
1689179056.0,286047001.3,N
1689179075.8,286047002.4,N
1689179095.7,286047002.3,N
1689179115.5,286046999.8,N
1689179135.3,286047002.7,N
1689179155.2,286047002.3,N
1689179175.0,286047002.6,N
1689179175.9,286047002.6,N
1689179195.8,286047002.3,N
1689179215.6,286047001.7,N
1689179235.4,286047001.9,N
1689179255.3,286047002.2,N
1689179275.1,286047001.5,N
1689179295.9,286047001.7,N
1689179315.7,286047002.0,N
1689179335.5,286047001.4,N
1689179355.4,286047001.4,N
1689179375.2,286047002.0,N
1689179395.1,286047002.5,N
1689179396.0,286047002.5,Y
1689179415.8,286047001.0,P
1689179435.6,286047000.8,N
1689179455.5,286046998.3,P
1689179475.3,286046998.4,N
1689179495.2,286046998.9,N
1689179515.0,286046998.7,N
1689179515.9,286046998.7,N
1689179535.7,286046997.0,N
1689179555.6,286046999.2,N
1689179575.4,286046999.6,N
1689179595.3,286046997.3,N
1689179615.1,286046997.5,N
1689179635.9,286046997.8,N
1689179655.7,286046998.0,N
1689179675.5,286046997.6,N
1689179695.4,286046997.9,N
1689179715.2,286046995.1,Y
1689179735.1,286046997.8,P
1689179736.0,286046997.8,P
1689179755.8,286046995.3,P
1689179775.6,286046994.9,Y
1689179795.5,286046998.5,P
1689179815.3,286047001.1,N
1689179835.2,286047000.5,N
1689179855.9,286047000.6,N
1689179875.7,286046998.2,N
1689179895.6,286047001.1,N
1689179915.4,286046998.1,N
1689179935.2,286046998.7,N
1689179955.1,286046999.2,N
1689179956.0,286046999.2,N
1689179975.8,286046999.2,N
1689179995.7,286046999.3,N
1689180015.5,286046999.6,N
1689180035.3,286046997.7,N
1689180055.2,286046997.0,N
1689180075.9,286046997.1,N
1689180095.7,286046996.5,N
1689180115.6,286046996.6,N
1689180135.4,286046996.9,N
1689180155.2,286046997.0,N
1689180175.1,286046996.6,N
1689180176.0,286046996.6,N
1689180195.8,286046997.2,N
1689180215.7,286046997.8,N
1689180265.5,286046995.3,E
1689180275.5,286046996.7,N
1689180295.3,286047000.6,P
1689180315.1,286047002.0,N
1689180335.9,286047002.7,N
1689180355.7,286047002.3,N
1689180375.5,286047002.2,N
1689180395.4,286047001.9,N
1689180415.2,286047002.2,N
1689180435.1,286047002.5,N
1689180436.0,286047002.5,N
1689180455.8,286047002.3,N
1689180475.6,286047001.4,N
1689180495.5,286047001.8,N
1689180515.3,286047001.6,N
1689180535.1,286047002.7,N
1689180555.9,286046999.7,N
1689180575.7,286047002.7,N
1689180595.6,286047000.2,N
1689180615.4,286047000.9,N
1689180635.2,286047001.0,N
1689180655.1,286047001.1,N
1689180656.0,286047001.1,N
1689180675.8,286047000.5,N
1689180695.6,286047000.0,N
1689180715.5,286047001.1,N
1689180735.3,286046998.3,N
1689180755.2,286047000.6,N
1689180775.9,286047000.4,N
1689180795.7,286047000.7,N
1689180815.6,286047000.8,N
1689180835.4,286047001.1,N
1689180855.2,286047000.7,N
1689180875.1,286047000.7,N
1689180876.0,286047000.7,N
1689180895.8,286047000.4,N
1689180915.7,286047001.1,N
1689180935.5,286047000.8,N
1689180955.3,286047000.9,N
1689180975.2,286046998.6,N
1689180995.0,286046999.3,N
1689180995.9,286046999.3,N
1689181015.8,286047001.1,N
1689181035.6,286046998.7,N
1689181055.4,286047001.2,N
1689181075.3,286046998.4,N
1689181095.1,286046998.2,N
1689181115.8,286046998.3,N
1689181135.7,286047000.8,N
1689181155.5,286046998.4,N
1689181175.4,286046998.3,N
1689181195.2,286046998.4,N
